SAS56T ENGM-EKCH

Flight info

Callsign SAS56T
Flight time N/A
Altitude 37000
Route ENGM/01R OKSAT L996 KELIN DCT TOPLA L996 ERNOV
Aircraft A320/M-SDE3FGHIRWY/LB1

Departure

Time N/A
Airport Oslo-Gardermoen International Airport (ENGM)

Arrival

Time 2026-04-24 19:11
Airport Copenhagen Kastrup Airport (EKCH)
Time Latitude Longitude Altitude Speed Heading
2026-04-24 18:54 56.43762 12.53153 15317 ft 368 kts 176°
2026-04-24 18:55 56.38724 12.54161 14517 ft 361 kts 179°
2026-04-24 18:55 56.36226 12.54544 14124 ft 359 kts 179°
2026-04-24 18:55 56.33746 12.54891 13720 ft 356 kts 179°
2026-04-24 18:56 56.31287 12.55232 13297 ft 354 kts 179°
2026-04-24 18:56 56.28843 12.55581 12907 ft 350 kts 179°
2026-04-24 18:56 56.26423 12.55937 12516 ft 347 kts 179°
2026-04-24 18:56 56.24020 12.56301 12127 ft 345 kts 179°
2026-04-24 18:57 56.21637 12.56668 11743 ft 342 kts 179°
2026-04-24 18:57 56.19276 12.57034 11356 ft 340 kts 178°
2026-04-24 18:57 56.16931 12.57394 11078 ft 334 kts 180°
2026-04-24 18:57 56.14678 12.57125 10961 ft 316 kts 198°
2026-04-24 18:58 56.12573 12.56077 10980 ft 314 kts 201°
2026-04-24 18:58 56.10474 12.55011 10982 ft 314 kts 201°
2026-04-24 18:58 56.08371 12.53942 10980 ft 314 kts 201°
2026-04-24 18:58 56.06267 12.52867 10980 ft 314 kts 201°
2026-04-24 18:59 56.04163 12.51787 10980 ft 314 kts 201°
2026-04-24 18:59 56.02059 12.50704 10981 ft 314 kts 201°
2026-04-24 18:59 55.99958 12.49622 10983 ft 314 kts 201°
2026-04-24 18:59 55.97964 12.48596 10983 ft 315 kts 201°
2026-04-24 19:00 55.95849 12.47513 10822 ft 315 kts 201°
2026-04-24 19:00 55.93760 12.46449 10665 ft 313 kts 201°
2026-04-24 19:00 55.91662 12.45379 10472 ft 312 kts 201°
2026-04-24 19:00 55.89573 12.44316 10276 ft 311 kts 201°
2026-04-24 19:01 55.87497 12.43263 10079 ft 310 kts 201°
2026-04-24 19:01 55.85432 12.42218 9892 ft 307 kts 200°
2026-04-24 19:01 55.83385 12.41181 9617 ft 305 kts 201°
2026-04-24 19:01 55.81345 12.40139 9252 ft 304 kts 201°
2026-04-24 19:02 55.79993 12.39448 8986 ft 304 kts 201°
2026-04-24 19:02 55.77282 12.38067 8496 ft 303 kts 200°
2026-04-24 19:02 55.75274 12.37050 8131 ft 303 kts 200°
2026-04-24 19:02 55.73260 12.36028 7792 ft 301 kts 200°
2026-04-24 19:03 55.71253 12.35014 7487 ft 298 kts 200°
2026-04-24 19:03 55.69247 12.34005 7017 ft 302 kts 200°
2026-04-24 19:03 55.67238 12.32992 6712 ft 299 kts 200°
2026-04-24 19:03 55.65247 12.31983 6420 ft 295 kts 200°
2026-04-24 19:04 55.63286 12.30989 6114 ft 292 kts 200°
2026-04-24 19:04 55.61306 12.30207 5800 ft 292 kts 189°
2026-04-24 19:04 55.59279 12.29990 5490 ft 291 kts 186°
2026-04-24 19:04 55.57268 12.29854 5198 ft 288 kts 185°
2026-04-24 19:05 55.55283 12.29730 4921 ft 284 kts 185°
2026-04-24 19:05 55.53331 12.29611 4637 ft 276 kts 185°
2026-04-24 19:05 55.51439 12.29504 4348 ft 268 kts 185°
2026-04-24 19:05 55.49585 12.29407 3985 ft 264 kts 185°
2026-04-24 19:06 55.47769 12.29430 3609 ft 262 kts 174°
2026-04-24 19:06 55.46082 12.30677 3261 ft 267 kts 143°
2026-04-24 19:06 55.44989 12.33202 3040 ft 263 kts 109°
2026-04-24 19:06 55.44798 12.36270 2999 ft 245 kts 77°
2026-04-24 19:07 55.45402 12.38901 3002 ft 221 kts 48°
2026-04-24 19:07 55.46430 12.40714 3003 ft 202 kts 35°
2026-04-24 19:07 55.47130 12.41782 2992 ft 191 kts 34°
2026-04-24 19:07 55.48424 12.43756 2840 ft 188 kts 34°
2026-04-24 19:08 55.49425 12.45284 2652 ft 192 kts 35°
2026-04-24 19:08 55.50433 12.46831 2364 ft 191 kts 35°
2026-04-24 19:08 55.51431 12.48363 2098 ft 189 kts 35°
2026-04-24 19:08 55.52413 12.49873 1836 ft 183 kts 36°
2026-04-24 19:09 55.53301 12.51245 1616 ft 159 kts 35°
2026-04-24 19:09 55.54107 12.52485 1403 ft 149 kts 35°
2026-04-24 19:09 55.54877 12.53665 1204 ft 145 kts 36°
2026-04-24 19:09 55.55630 12.54823 1013 ft 144 kts 36°
2026-04-24 19:10 55.56376 12.55970 812 ft 141 kts 38°
2026-04-24 19:10 55.57083 12.57056 633 ft 140 kts 37°
2026-04-24 19:10 55.57821 12.58185 430 ft 139 kts 39°
2026-04-24 19:10 55.58549 12.59311 241 ft 139 kts 38°
2026-04-24 19:11 55.59271 12.60431 62 ft 138 kts 38°
2026-04-24 19:11 55.59948 12.61471 24 ft 110 kts 40°
2026-04-24 19:11 55.60396 12.62169 24 ft 61 kts 41°
2026-04-24 19:11 55.60659 12.62576 26 ft 34 kts 41°
2026-04-24 19:12 55.60855 12.62809 26 ft 35 kts 22°
2026-04-24 19:12 55.61018 12.62881 24 ft 20 kts 12°
2026-04-24 19:12 55.61157 12.62972 24 ft 23 kts 34°
2026-04-24 19:12 55.61285 12.63160 25 ft 25 kts 41°
2026-04-24 19:13 55.61376 12.63303 24 ft 27 kts 41°
2026-04-24 19:13 55.61578 12.63615 24 ft 31 kts 41°
2026-04-24 19:13 55.61740 12.63865 26 ft 28 kts 40°
2026-04-24 19:13 55.61844 12.64025 25 ft 10 kts 40°
2026-04-24 19:14 55.61908 12.64103 24 ft 13 kts 26°
2026-04-24 19:14 55.62000 12.64176 24 ft 16 kts 25°
2026-04-24 19:14 55.62112 12.64270 24 ft 19 kts 25°
2026-04-24 19:14 55.62250 12.64377 22 ft 23 kts 18°
2026-04-24 19:15 55.62381 12.64445 24 ft 20 kts 16°
2026-04-24 19:15 55.62491 12.64463 26 ft 15 kts 332°
2026-04-24 19:15 55.62526 12.64401 24 ft 2 kts 306°
2026-04-24 19:15 55.62564 12.64300 24 ft 14 kts 303°
2026-04-24 19:16 55.62721 12.64371 24 ft 10 kts 71°
2026-04-24 19:16 55.62714 12.64446 24 ft 3 kts 102°
2026-04-24 19:16 55.62713 12.64460 24 ft 0 kts 102°